Вернуться в каталог

LEMUR 2 LLOYD

АктивенПогодаSSO
NORAD 60577·PAYLOAD·🇺🇸 United States

Запущен Aug 16, 2024 с Vandenberg Space Force Base

Loading…

Ближайшие Пролёты (ближайшие 24 часа)

TLE

СвежийSource: Space-Track

Эпоха: Sep 14, 2026, 04:06 UTC

1 60577U 24149DP  26257.17111927  .00007564  00000-0  46048-3 0  9993
2 60577  97.6699 338.4197 0003491 184.2880 175.8320 15.10695454113827

Отслеживайте LEMUR 2 LLOYD в реальном времени с AllMySat

Download on the App Store